Location: Lahitte
(43.6596°N, 0.6805°E)
Time: 20:55:48
(UTC+00:00)

CZ-4B DEB - Pass Details

Date: 15 May 2026
Orbit: 833 x 854 km, 98.9° (Epoch: 8 June)

Event Time Altitude Azimuth Distance (km) Brightness Sun altitude
Exits shadow 20:01:15 - 164° (SSE) 3,250 6.8 -7.8°
Reaches altitude 10° 20:03:13 10° 165° (SSE) 2,476 6.2 -8.1°
Maximum altitude 20:08:44 88° 252° (WSW) 861 4.3 -8.9°
Drops below altitude 10° 20:14:17 10° 345° (NNW) 2,494 7.5 -9.7°
Sets 20:16:40 0° 346° (NNW) 3,433 8.3 -10.1°
